Wind_Speed
22 23 24 25 27 28 28 32 30 31 32 31 32 33 32 34 34 33 28 29 29 27 25 22 21 21 20 19 17 16 15 12 12 16 18 16 15 14 12 12 12 11 9 8 6 7 9 10 10
25 26 27 29 30 32 33 38 33 36 35 37 38 38 38 38 36 35 35 33 33 32 31 28 26 24 23 21 21 19 18 16 14 13 15 19 18 16 15 13 13 13 13 11 9 9 9 11 11
27 28 30 32 32 32 32 35 32 36 37 38 38 37 39 39 35 38 35 37 38 38 36 34 32 30 27 26 24 22 21 20 18 16 14 14 19 19 17 16 14 14 14 14 13 11 11 12 12
29 29 28 26 26 28 29 32 30 30 30 32 33 34 34 33 35 34 34 35 38 40 40 39 38 36 34 31 29 26 25 24 23 21 19 16 16 19 21 19 18 16 16 16 16 15 13 13 14
21 23 25 26 29 32 31 33 32 33 34 35 36 37 37 37 36 36 37 37 36 36 37 41 41 41 40 37 34 31 28 27 26 24 23 22 18 16 18 23 21 20 19 18 18 18 17 16 16
23 26 28 31 33 34 36 37 38 40 41 42 42 44 44 41 43 42 41 41 39 38 37 36 37 40 42 42 40 37 34 31 29 27 25 23 22 21 18 16 23 23 22 21 20 20 20 19 19
28 31 34 35 38 40 43 40 45 47 48 50 50 47 50 47 48 47 47 46 45 43 41 39 37 36 35 38 42 43 40 36 34 31 30 27 25 23 22 24 20 20 25 24 23 21 22 22 22
32 35 38 40 41 45 48 48 52 54 55 57 57 56 55 55 51 53 53 52 50 48 47 45 43 40 39 38 38 40 43 42 39 36 34 32 29 26 25 24 25 24 21 26 27 25 26 24 24
33 36 38 41 44 45 49 51 54 56 59 61 63 62 64 62 60 60 58 57 56 54 52 50 48 46 42 39 39 39 40 43 42 40 38 37 34 32 30 28 28 27 25 25 26 29 30 28 27
32 33 34 36 41 45 50 54 57 60 61 64 65 67 69 68 68 67 65 63 62 60 57 55 52 49 46 42 40 39 39 40 41 41 40 39 38 37 34 32 31 30 29 28 27 27 31 33 32
25 27 27 27 27 28 29 32 35 37 39 46 56 63 72 76 73 72 70 69 68 64 61 58 56 53 50 46 43 41 38 37 37 37 36 35 35 39 39 38 36 34 33 32 31 30 29 30 35
21 25 26 29 32 34 37 40 43 48 54 54 53 54 52 57 68 79 76 72 71 70 67 63 60 57 54 50 47 44 41 38 36 35 34 33 32 32 35 38 40 40 37 36 35 35 33 33 33
24 27 27 28 31 34 39 44 51 57 60 61 62 58 58 60 57 66 75 78 74 72 70 69 65 61 58 55 51 48 45 42 39 36 34 32 31 30 30 30 33 36 38 39 39 39 38 37 37
21 24 30 35 39 41 40 46 57 57 52 48 51 52 53 55 57 57 58 70 77 74 73 71 69 66 61 58 55 51 49 46 42 39 37 35 34 33 32 31 31 32 33 34 36 39 43 42 41
23 28 32 37 42 44 46 49 53 45 44 43 47 51 52 53 55 56 57 56 66 73 69 71 70 68 65 61 57 54 52 50 47 44 41 40 38 38 38 37 36 35 35 35 37 37 38 40 45
23 27 32 38 44 49 47 48 48 46 45 48 51 54 54 54 60 60 61 58 57 67 66 66 67 67 65 63 60 56 53 51 51 49 46 44 44 43 42 41 41 40 39 39 38 38 41 43 42
22 28 33 38 42 45 49 48 46 46 46 49 52 57 53 49 47 46 48 54 56 59 62 60 61 62 63 62 59 57 54 52 51 52 51 49 48 47 46 45 44 43 43 42 42 43 41 41 45
29 31 35 39 41 43 45 46 49 49 50 54 57 60 56 41 30 34 39 41 48 51 54 56 55 57 58 58 57 56 54 51 50 50 50 51 50 50 50 48 48 47 47 46 46 45 46 45 45
31 33 33 36 39 39 43 45 46 48 50 54 58 60 52 44 19 20 27 30 38 41 45 49 50 51 51 52 52 52 51 50 48 47 47 48 49 49 49 49 49 50 50 49 50 49 49 49 52
29 30 31 32 37 39 41 42 46 47 50 52 54 55 52 42 32 2 9 20 32 37 37 41 44 43 44 45 47 47 46 47 46 46 45 45 46 47 47 48 48 48 49 50 50 51 52 53 55
29 30 31 33 35 35 37 42 43 44 47 49 51 50 47 38 25 16 4 14 22 28 21 26 36 39 43 40 42 44 44 43 44 44 44 44 45 45 46 47 48 50 52 52 53 54 54 55 57
28 28 31 31 33 35 36 34 39 40 42 44 46 46 43 37 29 15 5 9 5 21 21 14 21 27 33 42 43 39 39 40 43 44 46 46 47 46 47 48 50 51 54 54 55 57 59 61 61
30 30 30 31 31 32 34 35 34 36 36 37 39 40 40 35 30 23 13 2 4 10 27 25 17 21 25 29 33 36 40 43 42 42 39 39 41 41 43 45 46 46 49 51 54 56 58 60 63
32 32 31 30 30 32 32 34 34 33 32 34 33 34 34 33 28 24 19 13 9 6 14 18 21 20 23 28 31 33 34 34 35 36 37 39 41 42 44 45 48 50 52 53 55 58 60 62 64
36 36 35 34 31 32 34 32 32 33 31 29 29 28 28 28 26 23 19 15 10 4 6 11 13 17 23 26 29 30 32 33 33 34 35 36 37 37 37 37 39 40 41 42 44 45 48 51 54
41 41 39 40 37 33 33 35 33 31 32 28 26 25 23 26 25 22 18 14 9 5 3 6 10 14 17 20 23 24 26 27 28 28 29 30 31 33 37 37 36 37 38 41 41 41 45 50 53
42 44 45 44 41 41 34 35 35 34 28 31 26 26 25 25 24 20 19 20 17 12 7 8 10 13 18 20 21 22 22 22 25 28 30 31 30 31 32 32 32 34 37 37 40 44 47 48 49
43 43 44 45 45 45 43 36 40 37 31 26 29 26 27 27 25 22 22 22 23 22 10 6 6 7 10 15 17 19 21 24 27 28 27 27 27 29 31 33 36 37 40 43 46 47 49 47 46
41 41 40 42 44 45 47 38 42 43 34 29 27 25 25 26 27 27 25 23 21 19 11 9 10 11 12 14 16 20 24 26 26 27 27 27 29 31 33 34 37 39 42 44 46 45 49 48 45
40 40 42 44 45 45 42 36 39 44 38 31 30 30 30 25 25 26 27 27 25 21 17 12 11 11 12 14 19 23 27 32 32 30 29 29 29 27 30 35 42 47 49 50 49 48 47 44 43
Wind_Direction
255 259 261 263 269 274 275 274 271 268 269 271 269 270 271 270 268 268 265 262 264 263 262 261 260 261 261 264 266 268 270 266 263 253 245 244 241 238 241 242 237 234 227 225 215 214 207 203 213
255 260 264 267 270 272 270 269 266 267 266 265 266 267 267 266 266 265 265 261 259 258 259 257 257 256 259 258 259 260 265 266 264 261 256 248 247 245 243 242 245 243 239 227 222 214 212 211 211
256 260 265 268 268 270 268 272 269 263 263 263 263 261 262 262 263 263 262 261 259 257 256 257 256 256 253 255 255 254 256 259 261 261 261 261 251 249 247 244 243 244 244 240 230 223 215 216 216
260 263 263 268 272 270 271 272 272 266 263 262 262 260 263 262 260 261 261 260 260 257 257 256 255 255 254 252 253 253 253 254 255 257 258 260 260 252 249 250 248 245 244 243 241 233 229 222 223
257 264 270 272 270 269 268 269 267 265 263 260 260 258 255 255 258 260 260 261 261 262 258 255 254 254 256 256 253 252 252 253 252 252 254 253 254 257 255 248 248 248 248 245 242 242 238 233 229
262 265 267 267 265 267 264 264 262 260 259 259 257 257 257 254 254 255 256 257 258 258 259 258 255 254 254 255 256 253 251 250 253 253 253 251 249 250 258 263 253 248 247 248 247 245 242 241 242
259 262 265 266 268 268 266 268 266 264 264 262 260 261 259 256 255 254 253 252 252 252 252 253 254 253 252 252 254 255 253 251 250 250 251 251 249 249 246 248 257 257 250 251 251 248 248 244 244
263 267 271 274 275 279 276 276 273 273 272 271 268 265 260 258 257 256 255 253 251 249 249 250 250 250 249 250 251 251 252 252 250 248 247 249 248 247 246 245 246 251 253 251 251 254 253 251 249
276 280 282 285 284 282 282 279 276 274 273 270 269 268 267 265 260 257 254 254 252 251 248 246 247 248 250 250 250 248 247 248 249 248 247 246 247 246 245 244 245 246 248 250 252 249 254 257 255
285 285 284 282 281 279 278 278 279 277 277 275 270 267 263 259 257 255 255 253 252 251 250 249 248 247 248 247 247 247 246 246 246 247 247 246 245 247 247 247 247 246 247 247 250 253 249 251 257
280 283 289 292 296 302 303 307 304 300 298 288 281 275 270 262 260 258 253 251 251 250 250 250 249 249 246 246 245 244 244 243 244 246 247 247 246 245 246 247 248 246 247 249 248 248 251 252 252
291 294 301 305 307 311 309 308 307 304 297 295 295 288 281 276 260 256 253 252 249 247 247 247 247 246 246 244 241 240 240 240 240 242 245 246 246 245 244 246 247 250 248 248 250 250 248 250 253
306 308 316 318 321 322 320 318 310 307 305 300 294 288 282 279 272 260 252 248 247 248 245 244 244 245 245 245 243 238 236 238 240 241 243 245 246 245 244 245 247 249 251 250 249 249 250 250 251
323 324 331 333 330 326 325 323 318 315 310 307 297 288 282 274 269 260 254 248 242 242 245 243 243 243 242 244 245 242 238 235 236 238 240 242 243 244 246 247 250 253 255 256 254 253 251 250 251
335 335 335 332 329 330 334 331 333 332 327 318 310 303 293 283 272 260 251 252 244 238 240 242 242 242 243 244 244 244 242 239 237 238 239 242 244 246 248 251 253 255 258 258 258 259 259 257 255
334 332 331 332 333 335 338 340 344 345 338 329 321 317 304 285 272 265 259 247 238 235 235 238 239 240 241 242 244 245 245 244 243 241 242 244 247 250 252 254 256 257 258 261 262 262 261 260 260
326 330 331 328 328 333 338 344 347 349 346 340 336 333 322 301 277 264 253 241 230 228 230 233 236 238 239 241 242 244 248 248 247 248 248 250 251 254 256 259 260 261 262 262 262 263 263 263 260
325 325 326 326 328 333 338 342 348 351 353 351 349 349 342 325 279 255 250 237 233 223 225 226 231 235 238 239 241 243 246 250 251 252 253 255 257 258 261 263 264 264 266 267 266 264 263 262 258
319 321 324 326 332 334 336 341 348 353 358 359 357 358 358 1 320 263 240 223 220 218 221 222 226 232 235 240 241 242 245 249 253 255 257 258 260 262 262 263 264 265 266 265 266 266 265 264 261
315 319 323 326 329 336 335 340 347 353 359 1 3 4 8 10 14 277 201 197 200 213 218 220 222 228 234 237 242 244 246 249 252 255 257 259 260 261 262 263 264 265 266 266 266 268 267 264 261
314 318 323 325 325 333 333 341 345 350 358 1 5 8 13 18 17 26 52 183 201 212 225 230 227 231 235 240 243 245 249 252 254 255 257 258 260 261 262 263 264 264 266 265 262 261 261 261 260
310 315 321 323 324 330 335 337 345 347 356 360 4 10 15 21 28 30 57 160 182 217 214 222 230 236 239 240 241 245 250 253 254 256 259 260 261 262 262 262 261 260 260 261 262 261 261 261 260
311 312 318 322 325 325 329 337 342 348 351 358 4 9 15 20 27 35 41 92 214 202 213 238 247 236 232 235 238 241 246 252 257 260 257 254 255 256 257 258 259 258 259 260 260 261 261 261 261
307 311 310 316 318 324 327 332 336 340 352 356 3 9 13 17 24 29 33 38 37 239 210 223 230 235 234 235 233 236 237 239 243 247 251 253 256 259 260 261 260 261 262 265 265 265 266 266 265
303 305 307 307 312 324 326 325 327 335 338 347 355 5 15 17 16 20 30 37 31 53 235 277 262 247 241 240 245 249 246 247 252 256 261 264 264 265 266 266 265 265 266 268 268 267 267 267 266
305 307 310 309 311 315 318 320 323 329 328 334 343 355 4 9 15 16 9 3 5 6 304 248 248 255 264 264 260 258 256 257 257 255 254 257 259 259 261 266 266 265 268 270 271 272 275 276 270
304 305 306 306 305 308 312 312 313 319 325 323 328 333 339 342 348 3 9 9 353 312 294 282 267 259 249 247 249 252 250 247 249 247 256 258 261 264 264 267 269 270 272 274 274 275 278 278 271
306 306 304 302 303 304 307 309 307 310 314 320 318 324 327 327 333 334 341 344 354 355 281 280 292 297 278 264 256 258 262 261 259 258 258 260 264 268 270 273 278 279 278 277 278 278 278 279 272
304 306 305 302 301 301 303 308 304 304 305 310 306 312 319 318 317 316 319 325 329 341 328 282 293 294 288 284 279 275 270 265 262 262 263 266 273 278 281 283 285 283 279 280 281 281 281 276 274
299 301 300 301 303 303 304 312 301 301 304 298 296 304 309 308 305 305 308 308 306 307 310 305 283 279 285 291 292 289 285 275 265 262 266 272 280 282 287 289 291 290 288 284 280 278 277 271 273
Height
5855 5856 5856 5857 5859 5858 5858 5857 5857 5857 5857 5857 5856 5855 5856 5854 5854 5856 5857 5857 5857 5857 5857 5858 5858 5859 5859 5859 5860 5860 5860 5860 5859 5860 5861 5862 5862 5862 5862 5863 5863 5862 5863 5863 5862 5862 5863 5863 5864
5852 5853 5853 5853 5854 5853 5854 5850 5852 5851 5852 5851 5851 5850 5849 5848 5848 5850 5850 5852 5852 5852 5853 5854 5853 5855 5855 5856 5857 5858 5858 5858 5858 5858 5859 5859 5860 5861 5861 5861 5862 5862 5862 5862 5862 5861 5862 5862 5863
5848 5849 5849 5849 5849 5849 5849 5845 5847 5845 5844 5844 5844 5844 5842 5842 5843 5843 5845 5844 5845 5846 5847 5848 5849 5849 5850 5851 5853 5854 5855 5855 5856 5856 5856 5857 5857 5858 5859 5859 5860 5860 5861 5861 5860 5861 5860 5861 5861
5844 5845 5845 5845 5845 5845 5843 5841 5841 5840 5839 5839 5838 5838 5839 5838 5836 5836 5837 5837 5837 5838 5840 5842 5843 5844 5845 5846 5847 5849 5850 5851 5852 5853 5853 5854 5855 5855 5856 5857 5858 5858 5859 5859 5859 5859 5859 5859 5859
5841 5842 5841 5841 5840 5838 5837 5835 5835 5834 5832 5832 5831 5830 5829 5829 5829 5829 5829 5829 5830 5831 5833 5833 5836 5838 5839 5841 5843 5844 5846 5847 5847 5848 5849 5850 5851 5852 5853 5854 5855 5856 5856 5857 5857 5857 5858 5858 5858
5838 5837 5835 5833 5833 5832 5830 5829 5827 5825 5824 5823 5823 5821 5821 5823 5819 5820 5821 5821 5822 5824 5825 5826 5827 5829 5831 5833 5835 5838 5840 5841 5843 5844 5845 5846 5847 5848 5850 5851 5851 5852 5853 5854 5854 5855 5855 5856 5856
5832 5831 5829 5830 5827 5826 5822 5825 5820 5818 5816 5813 5812 5815 5812 5815 5812 5812 5810 5811 5812 5814 5815 5818 5819 5821 5823 5824 5827 5829 5832 5834 5836 5839 5840 5841 5843 5844 5845 5847 5847 5848 5849 5850 5851 5852 5853 5854 5854
5828 5826 5825 5824 5824 5821 5817 5817 5814 5811 5809 5806 5805 5805 5803 5802 5805 5803 5802 5802 5802 5803 5805 5807 5809 5812 5814 5816 5818 5820 5823 5825 5828 5831 5833 5835 5837 5839 5841 5842 5842 5844 5845 5845 5847 5848 5849 5850 5851
5824 5823 5821 5819 5816 5814 5809 5808 5804 5802 5798 5794 5792 5793 5791 5792 5794 5792 5791 5792 5793 5794 5795 5796 5798 5801 5805 5808 5810 5812 5814 5816 5819 5822 5826 5829 5831 5832 5834 5836 5838 5839 5840 5841 5841 5843 5844 5846 5848
5821 5819 5816 5813 5809 5807 5802 5797 5793 5789 5785 5780 5779 5775 5771 5772 5772 5776 5778 5780 5781 5782 5785 5787 5789 5792 5795 5798 5802 5804 5806 5808 5810 5813 5816 5820 5823 5826 5828 5830 5831 5833 5834 5836 5836 5837 5839 5841 5842
5816 5814 5811 5808 5804 5800 5796 5791 5784 5778 5774 5767 5764 5760 5756 5755 5757 5759 5761 5764 5767 5770 5774 5777 5780 5782 5785 5788 5792 5796 5799 5801 5803 5806 5808 5811 5815 5817 5820 5822 5824 5826 5827 5829 5831 5832 5833 5834 5835
5814 5810 5807 5804 5800 5795 5790 5784 5777 5768 5761 5756 5751 5745 5739 5735 5734 5737 5740 5746 5751 5755 5760 5763 5767 5771 5774 5778 5782 5786 5790 5794 5796 5799 5801 5803 5806 5809 5812 5814 5816 5818 5820 5823 5824 5826 5827 5828 5829
5810 5807 5804 5799 5794 5789 5784 5776 5765 5756 5747 5740 5733 5727 5721 5717 5716 5714 5717 5723 5729 5738 5743 5748 5754 5759 5763 5768 5773 5777 5781 5785 5789 5792 5794 5797 5799 5802 5804 5806 5808 5810 5812 5815 5817 5819 5820 5822 5822
5807 5803 5799 5793 5787 5782 5779 5768 5754 5743 5730 5721 5713 5708 5702 5697 5695 5695 5695 5700 5708 5717 5726 5734 5742 5747 5752 5757 5763 5768 5772 5776 5780 5783 5786 5789 5792 5794 5797 5800 5802 5804 5805 5807 5809 5811 5812 5814 5815
5803 5799 5795 5789 5781 5776 5769 5759 5742 5731 5720 5712 5704 5695 5687 5679 5674 5674 5675 5680 5688 5698 5708 5718 5727 5735 5743 5748 5752 5758 5763 5768 5771 5774 5778 5781 5784 5787 5789 5792 5795 5797 5799 5800 5802 5803 5804 5806 5809
5801 5798 5792 5784 5776 5766 5761 5753 5736 5725 5715 5705 5693 5679 5666 5656 5648 5649 5651 5658 5667 5679 5691 5701 5711 5721 5729 5737 5744 5749 5754 5759 5763 5766 5769 5772 5775 5778 5781 5784 5787 5789 5791 5793 5794 5796 5797 5798 5799
5800 5794 5789 5782 5773 5765 5753 5745 5733 5721 5710 5698 5681 5662 5645 5630 5622 5625 5630 5640 5648 5661 5675 5687 5698 5708 5717 5725 5733 5739 5745 5749 5754 5758 5761 5764 5767 5770 5773 5776 5779 5780 5782 5784 5786 5787 5788 5790 5791
5795 5790 5784 5776 5770 5759 5751 5741 5728 5716 5703 5688 5669 5650 5628 5608 5602 5607 5616 5628 5640 5649 5663 5675 5687 5697 5707 5715 5723 5729 5735 5740 5745 5748 5752 5756 5759 5762 5765 5767 5770 5771 5774 5776 5777 5779 5779 5780 5781
5791 5786 5780 5772 5764 5758 5747 5737 5727 5714 5701 5686 5667 5648 5628 5608 5600 5603 5611 5619 5634 5647 5655 5666 5677 5688 5698 5707 5715 5721 5726 5731 5736 5740 5744 5747 5749 5752 5755 5757 5759 5761 5763 5765 5766 5768 5770 5771 5771
5787 5782 5776 5770 5762 5754 5744 5736 5725 5713 5700 5687 5672 5654 5635 5621 5613 5611 5614 5621 5632 5643 5652 5662 5672 5682 5692 5699 5707 5713 5719 5723 5727 5731 5734 5737 5740 5741 5743 5746 5748 5750 5751 5752 5754 5756 5757 5759 5758
5782 5777 5772 5765 5758 5753 5744 5733 5723 5713 5701 5689 5677 5662 5647 5635 5629 5626 5626 5631 5640 5648 5656 5663 5670 5678 5687 5694 5700 5706 5711 5715 5718 5722 5725 5728 5730 5731 5733 5735 5737 5738 5738 5740 5740 5741 5742 5744 5745
5779 5774 5768 5762 5755 5748 5741 5735 5725 5715 5703 5693 5683 5672 5660 5649 5642 5639 5639 5642 5647 5651 5659 5664 5668 5674 5680 5687 5693 5698 5703 5706 5709 5713 5715 5718 5719 5720 5721 5723 5724 5725 5725 5727 5727 5727 5728 5728 5730
5774 5770 5765 5759 5752 5746 5740 5731 5724 5716 5707 5698 5689 5680 5670 5661 5654 5649 5649 5650 5652 5654 5659 5663 5667 5671 5675 5680 5685 5689 5694 5698 5701 5704 5705 5705 5707 5708 5709 5711 5712 5712 5713 5714 5714 5714 5714 5713 5714
5768 5764 5760 5756 5750 5744 5737 5730 5723 5716 5709 5701 5693 5685 5678 5671 5665 5660 5657 5656 5657 5658 5660 5664 5667 5669 5672 5675 5678 5681 5684 5687 5690 5693 5694 5695 5696 5697 5698 5699 5700 5700 5700 5701 5700 5700 5700 5699 5699
5763 5759 5754 5751 5746 5740 5733 5727 5722 5716 5709 5704 5697 5690 5683 5678 5673 5669 5666 5663 5662 5663 5664 5666 5667 5669 5670 5672 5674 5676 5677 5679 5681 5684 5686 5687 5687 5687 5688 5689 5688 5688 5688 5688 5688 5687 5687 5686 5685
5756 5753 5748 5742 5739 5737 5731 5723 5719 5715 5708 5703 5698 5693 5688 5683 5678 5674 5671 5669 5667 5666 5667 5666 5667 5667 5668 5670 5671 5672 5673 5674 5675 5676 5678 5678 5678 5679 5680 5680 5679 5678 5678 5677 5675 5674 5673 5672 5670
5750 5746 5741 5736 5733 5728 5728 5722 5717 5712 5709 5703 5698 5693 5689 5685 5682 5678 5675 5672 5669 5667 5666 5666 5666 5666 5666 5666 5666 5667 5668 5669 5670 5671 5671 5671 5671 5671 5671 5670 5669 5667 5667 5665 5664 5663 5661 5659 5657
5742 5738 5734 5729 5724 5720 5718 5718 5710 5708 5705 5701 5696 5692 5688 5684 5681 5678 5675 5672 5668 5665 5663 5663 5663 5664 5664 5664 5664 5664 5664 5664 5665 5665 5665 5664 5664 5663 5662 5660 5659 5657 5655 5653 5652 5650 5648 5647 5645
5736 5732 5727 5722 5717 5713 5709 5712 5702 5699 5699 5697 5692 5690 5687 5683 5680 5677 5674 5672 5670 5667 5663 5662 5661 5661 5660 5660 5659 5659 5659 5658 5658 5657 5657 5657 5656 5654 5651 5649 5647 5646 5645 5642 5640 5637 5635 5634 5632
5729 5724 5719 5713 5709 5704 5701 5706 5697 5691 5691 5690 5687 5685 5683 5680 5677 5674 5671 5669 5667 5665 5663 5661 5659 5657 5656 5655 5654 5653 5651 5649 5649 5649 5648 5648 5646 5645 5642 5640 5637 5634 5632 5629 5627 5625 5622 5620 5620